OpenBCM V2.0.3 (Linux)

Packet Radio Mailbox

IZ3LSV

[San Dona' di P. JN]

 Login: GUEST





  
I0OJJ  > AMSAT    02.06.26 02:31l 329 Lines 15514 Bytes #999 (0) @ WW
BID : 21O_IR0EQ
Read: GUEST
Subj: 2Line Orbital Elements
Path: IZ3LSV<I0OJJ<IR0EQ
Sent: 260602/0025z @:IR0EQ.ITA.EU [Rome] $:21O_IR0EQ

>From i0ojj%ir0eq.ita.eu@i0ojj.ampr.org Tue Jun  2 02:28:31 2026
Received: from i0ojj.ampr.org by i0ojj.ampr.org (JNOS2.0q.1) with SMTP
	id AA17061397 ; Tue, 02 Jun 2026 02:28:31 +0200
Message-Id: <21O_IR0EQ@i0ojj.bbs>
>From: i0ojj@ir0eq.ita.eu
X-JNOS-User-Port: Telnet   (i0ojj @ 44.27.18.9)  ->   Sending message

>From i0ojj@rgate.ampr.org Tue Jun  2 02:25:31 2026
Received: from rgate.ampr.org by rgate.ampr.org (JNOS2.0q.1) with SMTP
	id AA2652 ; Tue, 02 Jun 2026 02:25:31 +0200
Received: by rgate.ampr.org with SMTP
	id AA2649 ; Tue, 02 Jun 2026 02:25:23 +0200
Message-Id: <2650@rgate.ampr.org>
>From: i0ojj@rgate.ampr.org

SB KEPS @ AMSAT  $ORB26153.1
2Line Orbital Elements 26153.AMSAT

QST de W1STR

AMSAT Orbital Elements for Amateur Satellites in TLE Format
>From Orbital Analysis Office
New England Sci-Tech STEM Education Center
Natick MA June 02, 2026
To all radio amateurs


These element sets describe the orbits of various satellites 
in use by the amateur radio community. For details see:
www.amsat.org/keplerian-elements-formats/

A daily update of element sets is available at:
www.amsat.org/tle/daily-bulletin.txt
or without bulletin text:
www.amsat.org/tle/dailytle.txt


AO-07
1 07530U 74089B   26152.01571860 -.00000039  00000-0  48160-4 0  9993
2 07530 101.9902 165.0936 0012415 160.3966 224.4518 12.53697843358496
UO-11
1 14781U 84021B   26152.44791427  .00001545  00000-0  16292-3 0  9998
2 14781  97.8049 118.1998 0006338 228.7687 131.2986 14.90741108254788
AO-27
1 22825U 93061C   26152.12712906  .00000136  00000-0  68666-4 0  9998
2 22825  98.6884 219.5458 0009125 141.8908 218.2921 14.30937512704704
FO-29
1 24278U 96046B   26152.56287520 -.00000023  00000-0  97217-5 0  9996
2 24278  98.5252   3.5745 0350572 136.8776 226.0400 13.53273554471059
GO-32
1 25397U 98043D   26152.54067156  .00000078  00000-0  54078-4 0  9993
2 25397  99.0064 144.9051 0000247 232.4252 127.6903 14.24425146449102
ISS
1 25544U 98067A   26152.32329980  .00009658  00000-0  17978-3 0  9995
2 25544  51.6335  18.6331 0007203 121.2251 238.9444 15.49538094569296
NO-44
1 26931U 01043C   26152.51391786  .00000179  00000-0  97562-4 0  9995
2 26931  67.0511 284.8090 0006142 263.9593  96.0810 14.31949833288203
SO-50
1 27607U 02058C   26152.44338420  .00001132  00000-0  15063-3 0  9996
2 27607  64.5506 177.6953 0075543 265.3545  93.8930 14.83009786262123
CO-55
1 27844U 03031E   26152.51231190  .00000352  00000-0  17133-3 0  9998
2 27844  98.6737 161.2685 0008583 225.9837 134.0636 14.24325354189448
RS-22
1 27939U 03042A   26152.59873604  .00000896  00000-0  14627-3 0  9993
2 27939  98.3462 336.5177 0010514 324.1929 126.4027 14.73437108213250
CO-65
1 32785U 08021C   26152.53709800  .00005596  00000-0  35485-3 0  9997
2 32785  97.8270 133.6329 0010853  84.2856 275.9609 15.09290543982833
CO-66
1 32791U 08021J   26152.52991697  .00019469  00000-0  62844-3 0  9993
2 32791  97.7512 149.6876 0003278  45.6468 314.5041 15.32172800984894
RS-30
1 32953U 08025A   26152.56619916  .00000119  00000-0  78816-3 0  9990
2 32953  82.5051   5.1593 0019520 348.7101  11.3539 12.43179157817759
SRMSAT
1 37841U 11058D   26152.32622016  .00000395  00000-0  70452-4 0  9995
2 37841  19.9701 155.4732 0011864  30.5063  85.9028 14.11572059755572
ZACUBE-1
1 39417U 13066B   26152.47613157  .00004601  00000-0  35869-3 0  9995
2 39417  97.8108 114.7279 0039943 303.4009  56.3396 15.01070964678373
Delfi-N3xt
1 39428U 13066N   26152.58295956  .00006844  00000-0  60043-3 0  9995
2 39428  97.8346  72.9104 0072882 258.4193 100.8839 14.94907543672298
GOMX-1
1 39430U 13066Q   26152.59217786  .00003085  00000-0  46566-3 0  9992
2 39430  97.6487 354.0393 0129835 127.1374 234.1777 14.69396449667625
LO-74
1 39440U 13066AA  26152.45473840  .00004523  00000-0  41939-3 0  9990
2 39440  97.8901 101.3692 0059383  79.9427 280.8486 14.93621811674643
AO-73
1 39444U 13066AE  26152.47756180  .00007899  00000-0  49308-3 0  9994
2 39444  97.8263 123.5984 0034692 256.6273 103.1087 15.09278155677292
DTUSAT-2
1 40030U 14033W   26152.51763426  .00007665  00000-0  41654-3 0  9995
2 40030  98.0860 149.2528 0006130 293.3242  66.7343 15.14799814650319
LILACSAT-2
1 40908U 15049K   26152.59654563  .00018165  00000-0  31531-3 0  9996
2 40908  97.4658 188.8503 0005487 320.5398  39.5453 15.50894782593330
Horyu-4
1 41340U 16012D   26152.43486084  .00260233  00000-0  10081-2 0  9993
2 41340  30.9850 193.7734 0002293 171.6706 188.3991 15.85409012568303
Lapan A3
1 41603U 16040E   26152.59123668  .00003771  00000-0  12044-3 0  9993
2 41603  97.1481 149.2511 0012156  74.9346 285.3241 15.32998825552422
CAS-2T
1 41847U 16066G   26152.17162887  .00001713  00000-0  24828-3 0  9998
2 41847  98.3822 228.0901 0342124 177.9738 182.2936 14.44637956502487
TechnoSat
1 42829U 17042E   26152.42436526  .00003464  00000-0  24831-3 0  9995
2 42829  97.4272 310.6855 0018901 143.0908 217.1624 15.04856555484339
AO-91
1 43017U 17073E   26152.52978437  .00010633  00000-0  46381-3 0  9992
2 43017  97.4719  20.0675 0152009  23.3403 337.4634 15.12422224463026
S-Net D
1 43186U 18014G   26152.16507816  .00005526  00000-0  28675-3 0  9995
2 43186  97.5378  57.0570 0010025  77.5974 282.6380 15.16505237456339
S-Net B
1 43187U 18014H   26152.17621813  .00005171  00000-0  26875-3 0  9997
2 43187  97.5385  57.0541 0010633  73.3800 286.8600 15.16476384456334
S-Net A
1 43188U 18014J   26151.70216101  .00006495  00000-0  33629-3 0  9991
2 43188  97.5397  56.7888 0010528  75.2761 284.9638 15.16508390456263
S-Net C
1 43189U 18014K   26151.71811940  .00005826  00000-0  30231-3 0  9998
2 43189  97.5415  56.8767 0011853  68.7924 291.4574 15.16463093454813
Ten-Koh
1 43677U 18084G   26152.47765465  .00003285  00000-0  24978-3 0  9999
2 43677  98.0766 344.1780 0009875 166.5022 193.6468 15.02865102413806
PO-101
1 43678U 18084H   26152.56454041  .00003920  00000-0  31691-3 0  9991
2 43678  98.1145 348.0973 0011849 222.3157 137.7153 15.00373899413872
QO-100
1 43700U 18090A   26152.57578431  .00000157  00000-0  00000-0 0  9991
2 43700   0.0130 312.0908 0001951 150.4786  20.5614  1.00271414 27524
MinXSS-2
1 43758U 18099A   26152.56141732  .00038737  00000-0  79817-3 0  9992
2 43758  97.4545 228.4006 0006097 323.6873  36.3961 15.45796429411713
AO-95
1 43770U 18099N   26152.14908588  .00013440  00000-0  51911-3 0  9999
2 43770  97.4388 212.4576 0009635  53.2185 306.9937 15.26339289410770
SNUSat 2
1 43782U 18099AA  26152.09125975  .00010337  00000-0  46063-3 0  9991
2 43782  97.4068 205.7243 0009907   2.0096 358.1178 15.21575452410583
SnugLite
1 43784U 18099AC  26152.08881211  .00014314  00000-0  54569-3 0  9993
2 43784  97.3879 206.5305 0002565  22.0436 338.0913 15.26798342410860
ITASat 1
1 43786U 18099AE  26152.07948172  .00008673  00000-0  41854-3 0  9998
2 43786  97.4037 203.9142 0013749  54.5178 305.7337 15.18833609410462
EAGLET 1
1 43790U 18099AJ  26152.11281041  .00004504  00000-0  25972-3 0  9995
2 43790  97.4236 202.2077 0012233  48.1940 312.0334 15.12805776409903
ESEO
1 43792U 18099AL  26152.08210667  .00001383  00000-0  10364-3 0  9990
2 43792  97.3974 190.1608 0013065  36.2243 323.9866 15.04192362409380
JO-97
1 43803U 18099AX  26152.10777264  .00019722  00000-0  61811-3 0  9996
2 43803  97.4142 214.8925 0004502 341.1255  18.9819 15.33103336411167
Suomi 100
1 43804U 18099AY  26152.09886798  .00014141  00000-0  51899-3 0  9993
2 43804  97.4196 212.5553 0009057 345.5807  14.5172 15.28023953410961
ISAT
1 43879U 18111D   26152.29371047  .00088245  00000-0  98889-3 0  9994
2 43879  97.5896  86.3275 0004299  50.7328 309.4310 15.62386952408680
UWE-4
1 43880U 18111E   26152.22407478  .00035089  00000-0  74145-3 0  9994
2 43880  97.5863  79.8924 0008605  39.5721 320.6154 15.45058133408310
Sparrow
1 43881U 18111F   26152.28258587  .00132004  00000-0  10901-2 0  9990
2 43881  97.6130  91.6686 0005644  94.3164 265.8742 15.69887365408873
Prox-1
1 44339U 19036A   26152.18996043  .00013426  00000-0  13221-2 0  9995
2 44339  23.9941 221.0853 0005637 201.1986 158.8280 14.90205705371086
Taurus 1
1 44530U 19059C   26152.60865795  .00008043  00000-0  12909-2 0  9990
2 44530  98.6401 316.4727 0008142   9.2230 350.9123 14.71916928356350
TO-108
1 44881U 19093C   26152.56270611  .00001888  00000-0  21907-3 0  9998
2 44881  97.7538 225.1756 0014605 133.8415 226.4011 14.86494232349099
RS-44
1 44909U 19096E   26152.52522414  .00000021  00000-0  39244-4 0  9991
2 44909  82.5220 350.1148 0217466 180.7254 179.3564 12.79748610300342
SALSAT
1 46495U 20068K   26152.51143327  .00008227  00000-0  28976-3 0  9990
2 46495  97.8846 154.6250 0009672   8.8723 351.2685 15.29551793312965
CSS (TIANHE-1)
1 48274U 21035A   26152.48901857  .00017899  00000-0  21754-3 0  9990
2 48274  41.4697  57.4877 0010237 322.0147  37.9969 15.60090284290715
CUTE
1 49263U 21088D   26152.20715704  .00343971  00000-0  13255-2 0  9990
2 49263  97.4193 250.0203 0006192 260.4905  99.5666 15.86440248260017
TeikyoSat 4
1 49396U 21102B   26152.07849724  .00002229  00000-0  14293-3 0  9991
2 49396  97.3675 182.1882 0011768 357.3685   2.7480 15.09447622250299
Z-Sat
1 49399U 21102E   26152.57747134  .00005221  00000-0  25825-3 0  9999
2 49399  97.3328 188.3749 0015147 305.1244  54.8570 15.18139242251075
KOSEN 1
1 49402U 21102H   26152.08382357  .00008806  00000-0  33841-3 0  9991
2 49402  97.3192 194.5556 0011955 262.5049  97.4832 15.26593801251568
HO-113
1 50466U 21131B   26152.50463153  .00000684  00000-0  22489-3 0  9998
2 50466  98.4978 244.9795 0004995 133.9467 226.2134 14.41341965232856
SNUGLITE 2
1 52899U 22065F   26152.38321816  .00001173  00000-0  23132-3 0  9992
2 52899  98.2183 297.2439 0008730  76.8027 283.4149 14.64314969208682
